Regional Weather Roundup
Issued by NWS

Home | Current Version | Previous Version | Text Only | Print | Product List | Glossary On
Versions: 1 2 3 4 5 6 7 8 9 10 11 12 13 14 15 16 17 18 19 20 21 22 23 24 25 26 27 28 29 30 31 32 33 34 35 36 37 38 39 40 41 42 43 44 45 46 47 48 49 50
000
ASUS43 KOAX 260010
RWRNE

WEATHER ROUNDUP FOR NEBRASKA
NATIONAL WEATHER SERVICE OMAHA NE
700 PM CDT MON MAY 25 2015

NOTES: SATELLITE DATA IS BEING USED TO AUGMENT CLOUD COVER ABOVE
       12000 FEET.
       "FAIR" INDICATES FEW OR NO CLOUDS BELOW 12,000 FEET WITH NO
       SIGNIFICANT WEATHER AND/OR OBSTRUCTIONS TO VISIBILITY.

  * THESE STATIONS DO NOT REPORT WEATHER SUCH AS RAIN...SNOW OR FOG.

NEZ001>004-019>022-054>056-260100-
NEBRASKA PANHANDLE

CITY           SKY/WX    TMP DP  RH WIND       PRES   REMARKS
SCOTTSBLUFF    LGT RAIN  56  53  90 S7        29.89S
6HR MIN TEMP:  52; 6HR MAX TEMP:  58; 6HR PCP:  0.23;

ALLIANCE       CLOUDY    59  51  75 W7        29.87S
6HR MIN TEMP:  52; 6HR MAX TEMP:  58; 6HR PCP:  0.19;

CHADRON        LGT RAIN  58  53  84 N8        29.87R
6HR MIN TEMP:  56; 6HR MAX TEMP:  63; 6HR PCP:  0.04;

KIMBALL          N/A    N/A N/A N/A MISG        N/A
SIDNEY         PTSUNNY   54  49  83 N12       29.89F
6HR MIN TEMP:  52; 6HR MAX TEMP:  57; 6HR PCP:  0.08;

$$

NEZ057>060-069>072-079>082-260100-
SOUTHWEST NEBRASKA

CITY           SKY/WX    TMP DP  RH WIND       PRES   REMARKS
NORTH PLATTE   PTSUNNY   66  49  54 W12       29.79R
6HR MIN TEMP:  64; 6HR MAX TEMP:  70;

IMPERIAL       MOSUNNY   62  50  64 NW20G29   29.82S
6HR MIN TEMP:  57; 6HR MAX TEMP:  66; 6HR PCP:  0.03;

LEXINGTON      SUNNY     71  53  53 W12       29.77R
MCCOOK         SUNNY     70  48  45 W17G25    29.80R
6HR MIN TEMP:  67; 6HR MAX TEMP:  75;

OGALLALA       PTSUNNY   60  53  76 N12       29.80F
$$

NEZ005>010-023>029-035>040-094-260100-
NORTH CENTRAL NEBRASKA

CITY           SKY/WX    TMP DP  RH WIND       PRES   REMARKS
VALENTINE      CLOUDY    58  54  86 NW7       29.81F
6HR MIN TEMP:  54; 6HR MAX TEMP:  58; 6HR PCP:  1.12;

AINSWORTH      PTSUNNY   59  56  90 NW9       29.79F
BROKEN BOW     CLOUDY    71  54  54 W5        29.76R
6HR MIN TEMP:  65; 6HR MAX TEMP:  73; 6HR PCP:  0.01;

O`NEILL        MOSUNNY   68  57  68 N8        29.77R
ORD            PTSUNNY   71  54  54 W7        29.73R
6HR MIN TEMP:  68; 6HR MAX TEMP:  74; 6HR PCP: TRACE;

THEDFORD       PTSUNNY   61  52  72 NW12      29.80S
$$

NEZ041-046>049-061>064-073>077-083>087-260100-
SOUTH CENTRAL NEBRASKA

CITY           SKY/WX    TMP DP  RH WIND       PRES   REMARKS
GRAND ISLAND   MOSUNNY   71  55  56 S7        29.76R THUNDER
6HR MIN TEMP:  70; 6HR MAX TEMP:  76;

AURORA         PTSUNNY   75  54  47 S8        29.77R
HASTINGS       PTSUNNY   74  55  51 S5        29.76R
6HR MIN TEMP:  68; 6HR MAX TEMP:  75;

HEBRON         PTSUNNY   78  57  48 S18G28    29.78R
HOLDREGE       MOSUNNY   74  46  37 W9        29.76R
KEARNEY *      MOSUNNY   75  50  41 W10       29.76R
YORK           MOSUNNY   77  57  50 SW5       29.76S
$$

NEZ011>018-030>034-042>045-260100-
NORTHEAST NEBRASKA

CITY           SKY/WX    TMP DP  RH WIND       PRES   REMARKS
NORFOLK        MOSUNNY   75  55  49 S10       29.74R
6HR MIN TEMP:  74; 6HR MAX TEMP:  78;

ALBION         PTSUNNY   75  51  43 SW8       29.75R
BLAIR          PTSUNNY   77  57  50 S12       29.75R
COLUMBUS *     MOSUNNY  N/A N/A N/A MISG        N/A
FREMONT        MOSUNNY   79  57  46 S9        29.75R
TEKAMAH        MOSUNNY   81  59  47 SW15      29.74R
6HR MIN TEMP:  77; 6HR MAX TEMP:  83;

WAYNE          MOSUNNY   74  56  53 SW10      29.75R
$$

NEZ050>053-065>068-078-088>093-260100-
SOUTHEAST NEBRASKA

CITY           SKY/WX    TMP DP  RH WIND       PRES   REMARKS
LINCOLN        CLOUDY    75  62  64 S8        29.75R
6HR MIN TEMP:  74; 6HR MAX TEMP:  80;

OMAHA EPPLEY   CLOUDY    78  61  55 S13       29.74R
6HR MIN TEMP:  75; 6HR MAX TEMP:  81;

BEATRICE       CLOUDY    69  56  61 SW28G43   29.77R
FALLS CITY     TSTM      63  58  83 MISG      29.83R
6HR MIN TEMP:  63; 6HR MAX TEMP:  79; 6HR PCP:  0.07;

NEBRASKA CITY  CLOUDY    64  56  76 S8G16     29.79R
PLATTSMOUTH    CLOUDY    70  55  58 SE16G23   29.77R
$$

NEZ044-045-051>053-067-260100-
OMAHA AREA

CITY           SKY/WX    TMP DP  RH WIND       PRES   REMARKS
OMAHA EPPLEY   CLOUDY    78  61  55 S13       29.74R
6HR MIN TEMP:  75; 6HR MAX TEMP:  81;

BLAIR          PTSUNNY   77  57  50 S12       29.75R
FREMONT        MOSUNNY   79  57  46 S9        29.75R
MILLARD        PTSUNNY   78  61  56 S7        29.74R
OFFUTT AFB     PTSUNNY   76  64  65 SE21G26   29.74R
PLATTSMOUTH    CLOUDY    70  55  58 SE16G23   29.77R
WAHOO          FAIR      78  58  50 SW10      29.74S
$$



USA.gov is the U.S. government's official web portal to all federal, state and local government web resources and services.